FW6966 Weather Reports


Display with metric or nautical units.
time (UTC)temp
F
wind
direction
speed
MPH
gust
MPH
rain 1hr
in
rain 24hr
in
rain mn
in
humidity
%
barometer
mb
20260505211530 77 322 5.0 9.0 0.00 0.00 0.00 48 1014.3
20260505210029 77 323 5.0 11.0 0.00 0.00 0.00 47 1014.5
20260505204530 77 324 5.0 10.0 0.00 0.00 0.00 47 1014.6
20260505201528 77 337 6.0 12.0 0.00 0.00 0.00 47 1014.7
20260505200032 76 342 6.0 11.0 0.00 0.00 0.00 48 1014.8
20260505194529 75 336 5.0 10.0 0.00 0.00 0.00 49 1014.9
20260505193147 73 318 5.0 10.0 0.00 0.00 0.00 52 1014.9
20260505191537 73 319 5.0 9.0 0.00 0.00 0.00 51 1015.0
20260505190029 74 338 5.0 11.0 0.00 0.00 0.00 51 1015.1
20260505184529 73 327 5.0 10.0 0.00 0.00 0.00 52 1015.2
20260505183030 72 318 4.0 13.0 0.00 0.00 0.00 56 1015.2
20260505181530 70 314 4.0 10.0 0.00 0.00 0.00 58 1015.2
20260505174531 67 359 2.0 8.0 0.00 0.00 0.00 64 1015.3
20260505173030 66 321 3.0 9.0 0.00 0.00 0.00 65 1015.2
20260505171531 65 334 3.0 9.0 0.00 0.00 0.00 66 1015.2
20260505170034 65 316 3.0 6.0 0.00 0.00 0.00 67 1015.2
20260505164530 64 340 3.0 8.0 0.00 0.00 0.00 67 1015.2
20260505163030 64 3 2.0 5.0 0.00 0.00 0.00 67 1015.2
20260505161530 65 45 2.0 6.0 0.00 0.00 0.00 67 1015.2
20260505153029 61 74 2.0 5.0 0.00 0.00 0.00 77 1015.0
20260505151531 59 87 2.0 6.0 0.00 0.00 0.00 81 1014.9
20260505130147 49 129 2.0 3.0 0.00 0.00 0.00 90 1013.8
20260505124530 49 139 2.0 4.0 0.00 0.00 0.00 89 1013.6
20260505123031 49 136 0.0 4.0 0.00 0.00 0.00 88 1013.5
20260505121529 49 183 2.0 3.0 0.00 0.00 0.00 87 1013.4
20260505120031 50 135 1.0 3.0 0.00 0.00 0.00 86 1013.4
20260505114529 51 135 1.0 3.0 0.00 0.00 0.00 85 1013.3
20260505113032 52 129 1.0 3.0 0.00 0.00 0.00 83 1013.2
20260505111532 53 215 1.0 4.0 0.00 0.00 0.00 81 1013.1
20260505101529 55 151 2.0 4.0 0.00 0.00 0.00 78 1012.7
20260505100038 55 180 0.0 5.0 0.00 0.00 0.00 77 1012.6
20260505094531 56 162 2.0 5.0 0.00 0.00 0.00 75 1012.6
20260505093031 57 292 0.0 0.0 0.00 0.00 0.00 74 1012.5
20260505091605 57 292 0.0 1.0 0.00 0.00 0.00 74 1012.4
20260505090030 57 274 1.0 3.0 0.00 0.00 0.00 73 1012.3
20260505084606 58 314 0.0 2.0 0.00 0.00 0.00 72 1012.3
20260505081531 58 197 0.0 3.0 0.00 0.00 0.00 72 1012.3
20260505080031 58 106 0.0 3.0 0.00 0.00 0.00 71 1012.2
20260505074529 57 102 0.0 2.0 0.00 0.00 0.00 71 1012.2
20260505073030 57 112 0.0 3.0 0.00 0.00 0.00 71 1012.1
20260505071605 58 154 1.0 4.0 0.00 0.00 0.00 70 1012.0
20260505063029 60 194 2.0 4.0 0.00 0.00 0.00 64 1011.8
20260505061529 60 160 0.0 2.0 0.00 0.00 0.00 63 1011.7
20260505060030 61 215 0.0 3.0 0.00 0.00 0.00 61 1011.7
20260505054531 62 256 1.0 5.0 0.00 0.00 0.00 60 1011.6
20260505053032 62 272 3.0 7.0 0.00 0.00 0.00 59 1011.5
20260505051527 63 292 0.0 0.0 0.00 0.00 0.00 57 1011.4
20260505041530 67 256 3.0 6.0 0.00 0.00 0.00 51 1010.8
20260505040043 68 261 5.0 10.0 0.00 0.00 0.00 50 1010.6
20260505034528 68 272 5.0 9.0 0.00 0.00 0.00 50 1010.4
20260505033030 68 265 6.0 14.0 0.00 0.00 0.00 48 1010.3
20260505031530 70 267 4.0 8.0 0.00 0.00 0.00 47 1010.0
20260505030032 72 268 5.0 11.0 0.00 0.00 0.00 44 1009.8
20260505024531 73 271 7.0 14.0 0.00 0.00 0.00 43 1009.5
20260505023030 73 279 9.0 22.0 0.00 0.00 0.00 42 1009.4
20260505021530 74 282 10.0 20.0 0.00 0.00 0.00 41 1009.4
20260505020030 75 283 11.0 17.0 0.00 0.00 0.00 39 1009.3
20260505013030 77 287 12.0 23.0 0.00 0.00 0.00 36 1009.2
20260505011530 78 281 12.0 20.0 0.00 0.00 0.00 36 1009.2
20260505010033 78 282 11.0 19.0 0.00 0.00 0.00 37 1009.1
20260505004529 78 290 10.0 18.0 0.00 0.00 0.00 41 1009.3
20260505003107 79 306 6.0 11.0 0.00 0.00 0.00 43 1009.4
20260505000030 80 346 9.0 17.0 0.00 0.00 0.00 43 1009.3
20260504234531 80 332 7.0 15.0 0.00 0.00 0.00 42 1009.4
20260504233030 80 336 9.0 17.0 0.00 0.00 0.00 42 1009.4
20260504224531 81 339 9.0 16.0 0.00 0.00 0.00 40 1009.9
20260504223029 81 336 9.0 14.0 0.00 0.00 0.00 39 1010.0
20260504221530 81 320 7.0 15.0 0.00 0.00 0.00 38 1010.2
20260504220029 81 310 7.0 13.0 0.00 0.00 0.00 37 1010.3
20260504214607 81 315 7.0 13.0 0.00 0.00 0.00 36 1010.5
20260504213031 82 309 5.0 9.0 0.00 0.00 0.00 36 1010.6